This is the latest recevied weather packets stored in our database for station/object W0RMT-13. If no packets are shown the sender has not sent any weather packets the latest 10 day(s).
| Time | Temp. | Humidity | Pressure | Rain* | Wind** | Luminosity | Snow |
|---|---|---|---|---|---|---|---|
| 1777759413 | 23.89° C | 13% | 1017.4 hPa | 0 mm | - | 567 W/m² | - |
| 1777758793 | 23.33° C | 13% | 1017.4 hPa | 0 mm | - | 575 W/m² | - |
| 1777758163 | 23.33° C | 13% | 1017.4 hPa | 0 mm | - | 582 W/m² | - |
| 1777757549 | 23.33° C | 13% | 1017.8 hPa | 0 mm | - | 586 W/m² | - |
| 1777756862 | 23.33° C | 14% | 1017.8 hPa | 0 mm | - | 596 W/m² | - |
| 1777756187 | 22.78° C | 13% | 1017.8 hPa | 0 mm | - | 606 W/m² | - |
| 1777755514 | 22.78° C | 15% | 1018.7 hPa | 0 mm | - | 618 W/m² | - |
| 1777754797 | 22.78° C | 15% | 1018.2 hPa | 0 mm | - | 614 W/m² | - |
| 1777754130 | 22.78° C | 15% | 1018.2 hPa | 0 mm | - | 624 W/m² | - |
| 1777753519 | 22.22° C | 16% | 1018.2 hPa | 0 mm | - | 629 W/m² | - |
| 1777752828 | 21.67° C | 16% | 1018.7 hPa | 0 mm | - | 632 W/m² | - |
| 1777752149 | 21.67° C | 16% | 1018.7 hPa | 0 mm | - | 638 W/m² | - |
| 1777751463 | 21.67° C | 16% | 1019 hPa | 0 mm | - | 640 W/m² | - |
| 1777750760 | 21.67° C | 17% | 1019 hPa | 0 mm | - | 647 W/m² | - |
| 1777750144 | 21.11° C | 17% | 1019.4 hPa | 0 mm | - | 645 W/m² | - |
| 1777749496 | 21.11° C | 18% | 1019.4 hPa | 0 mm | - | 646 W/m² | - |
| 1777748848 | 20.56° C | 20% | 1019.4 hPa | 0 mm | - | 642 W/m² | - |
| 1777748274 | 20.56° C | 18% | 1019.4 hPa | 0 mm | - | 649 W/m² | - |
| 1777747597 | 20° C | 20% | 1019.8 hPa | 0 mm | - | 643 W/m² | - |
| 1777746873 | 20° C | 19% | 1019.4 hPa | 0 mm | - | 641 W/m² | - |
| 1777746170 | 19.44° C | 20% | 1020.2 hPa | 0 mm | - | 641 W/m² | - |
| 1777745565 | 19.44° C | 19% | 1020.2 hPa | 0 mm | - | 635 W/m² | - |
| 1777744944 | 19.44° C | 20% | 1020.5 hPa | 0 mm | - | 629 W/m² | - |
| 1777744290 | 19.44° C | 20% | 1020.5 hPa | 0 mm | - | 626 W/m² | - |
| 1777743633 | 19.44° C | 20% | 1020.5 hPa | 0 mm | - | 613 W/m² | - |
* Rain latest hour (hover to see other rain measurements)
** Current wind speed in m/s (hover to see current wind gust speed)